Regional Weather Roundup
Issued by NWS

Home | Current Version | Previous Version | Graphics & Text | Print | Product List | Glossary On
Versions: 1 2 3 4 5 6 7 8 9 10 11 12 13 14 15 16 17 18 19 20 21 22 23 24 25 26 27 28 29 30 31 32 33 34 35 36 37 38 39 40 41 42 43 44 45 46 47 48 49 50
000
ASUS43 KMKX 291300
RWRWI

WISCONSIN REGIONAL WEATHER ROUNDUP
NATIONAL WEATHER SERVICE MILWAUKEE/SULLIVAN WI
800 AM CDT TUE JUL 29 2014

NOTE: "FAIR" INDICATES FEW OR NO CLOUDS BELOW 12,000 FEET WITH NO
SIGNIFICANT WEATHER AND/OR OBSTRUCTIONS TO VISIBILITY.

WIZ001-002-006>008-014>016-023>028-291400-
NORTHWEST WISCONSIN

CITY           SKY/WX    TMP DP  RH WIND       PRES   REMARKS
SUPERIOR ARPT  MOSUNNY   59  56  88 W6        30.07S
ASHLAND        PTSUNNY   61  56  83 SW3       30.07R
HAYWARD        MOSUNNY   56  54  93 CALM      30.10R
SIREN          SUNNY     58  56  92 CALM      30.11S
RICE LAKE      NOT AVBL
LADYSMITH      MOSUNNY   60  56  88 W5        30.11S
EAU CLAIRE     NOT AVBL
MENOMONIE      SUNNY     62  57  81 W5        30.11R
NEW RICHMOND   SUNNY     59  58  94 W3        30.13R
OSCEOLA        SUNNY     58  58 100 CALM      30.15S
$$

WIZ003>005-009-010-017-018-291400-
NORTH CENTRAL WISCONSIN

CITY           SKY/WX    TMP DP  RH WIND       PRES   REMARKS
WOODRUFF       PTSUNNY   59  57  91 NW6       30.06S
RHINELANDER    CLOUDY    56  53  90 NW6       30.07R
EAGLE RIVER    MOSUNNY   55  55 100 NW7       30.05R
LAND O LAKES   MOSUNNY   57  54  89 NW5       30.05S
PHILLIPS       PTSUNNY   55  53  93 NW3       30.08S
TOMAHAWK       CLOUDY    54  53  97 CALM      30.07S
MEDFORD        PTSUNNY   55  55  97 CALM      30.08S
MERRILL        CLOUDY    56  55  95 NW3       30.06S
$$

WIZ029-030-035-036-043>047-291400-
CENTRAL WISCONSIN

CITY           SKY/WX    TMP DP  RH WIND       PRES   REMARKS
WAUSAU         CLOUDY    58  54  86 NW6       30.05S
MOSINEE        PTSUNNY   57  57 100 NW7       30.07R
MARSHFIELD     MOSUNNY   61  56  83 NW9       30.07R
STEVENS POINT  PTSUNNY   56  53  89 NW3       30.06S
WAUPACA        CLOUDY    63  55  75 W5        30.04S
WAUTOMA        NOT AVBL
WISC RAPIDS    MOSUNNY   60  55  83 NW5       30.08R
CAMP DOUGLAS   NOT AVBL
$$

WIZ011>013-019>022-031-037>040-048>050-291400-
NORTHEAST WISCONSIN

CITY           SKY/WX    TMP DP  RH WIND       PRES   REMARKS
ANTIGO         SUNNY     55  53  94 NW6       30.06R
STURGEON BAY   MOSUNNY   61  54  77 NW9       30.02R
GREEN BAY      PTSUNNY   62  56  80 N5        30.02S
MANITOWOC      NOT AVBL
APPLETON       PTSUNNY   61  55  82 NW8       30.04R
CLINTONVILLE   SUNNY     61  52  72 NW6       30.04R
OSHKOSH        MOSUNNY   62  56  80 NW5       30.04R
$$

WIZ032>034-041-042-053>061-291400-
SOUTHWEST WISCONSIN

CITY           SKY/WX    TMP DP  RH WIND       PRES   REMARKS
LA CROSSE      SUNNY     62  57  83 CALM      30.10R
SPARTA         SUNNY     55  53  92 CALM      30.10R
VIROQUA        FAIR      57  57 100 W3        30.10S
BOSCOBEL       SUNNY     60  56  86 CALM      30.10S
PRAIRIE DU CHI SUNNY     60  54  81 NW3       30.10S
PLATTEVILLE    FAIR      56  55  94 W3        30.11R
$$

WIZ056-057-062-063-064-067-068-291400-
SOUTH CENTRAL WISCONSIN

CITY           SKY/WX    TMP DP  RH WIND       PRES   REMARKS
BARABOO/DELLS  SUNNY     60  52  75 W3        30.07S
LONE ROCK      NOT AVBL
WATERTOWN      SUNNY     59  55  85 W3        30.05R
MADISON        SUNNY     63  54  72 CALM      30.07R
MIDDLETON      FAIR      61  54  77 W6        30.08R
MONROE         SUNNY     61  52  72 W8        30.08R
JANESVILLE     NOT AVBL
$$

WIZ051-052-058>065-066-070>072-291400-
SOUTHEAST WISCONSIN

CITY           SKY/WX    TMP DP  RH WIND       PRES   REMARKS
MILWAUKEE      MOSUNNY   64  54  69 NW9       30.03S
WAUKESHA       MOSUNNY   61  54  77 W7        30.05R
MILWAUKEE/TIMM SUNNY     61  54  77 NW62      30.04R
RACINE         MOSUNNY   63  55  75 NW9       30.04S
BURLINGTON     SUNNY     59  55  87 NW3       30.04S
KENOSHA        SUNNY     62  56  80 W8        30.04S
FOND DU LAC    MOSUNNY   61  55  81 NW6       30.05R
SHEBOYGAN      PTSUNNY   61  56  83 NW9       30.02R
WEST BEND      PTSUNNY   61  52  72 NW8       30.03S
JUNEAU         SUNNY     60  53  76 W3        30.06S
$$

LSZ147-162-291400-
LAKE SUPERIOR

STATION/POSITION TIME  TEMP    WIND        PRES    WAVE
                       AIR SEA DIR/SP/G            HT/PER
                 (UTC) (F)     (DEG/KT/KT) (MB)    (FT/S)
W MID LAKE BUOY  1150   52 44  280/  4/  8 1016.7R   1
PORT WING        1240   60     190/  4/  5 1018.3R
SAXON HARBOR     1200          190/  4/  6 1017.9R
$$

LMZ867-665-643>646-291400-
LAKE MICHIGAN

STATION/POSITION TIME  TEMP    WIND        PRES    WAVE
                       AIR SEA DIR/SP/G            HT/PER
                 (UTC) (F)     (DEG/KT/KT) (MB)    (FT/S)
N MID LAKE BUOY  1150   55 52  280/  6/  6 1014.2R   1
NORTHPORT PIER   1200   61     320/ 11/ 14 1015.2R
SISTER BAY       1210   61     340/ 13/ 16   N/A
ALGOMA LAKESHORE 1106          310/  5/  7   N/A
KEWAUNEE LAKESHO 1200   59     300/  5/  8 1016.4R
SHEBOYGAN LAKESH 1200   62     300/ 10/ 12 1016.4R
PORT WASHINGTON  1200   62     300/  7/ 10 1016.9R
ATWATER BUOY     1200   62     270/ 10     1017.4R
MILWAUKEE LAKESH 1200   62     300/  8/ 12   N/A
S MID LAKE BUOY  1150   61 60  270/ 10/ 12 1016.2R   1/ 5
KENOSHA   LAKESH 1200   62     290/  9/ 13 1016.6R
$$

TC  - TEMPERATURE IN CELSIUS
VSB - VISIBILITY IN STATUTE MILES
WCI - WIND CHILL INDEX
HX  - HEAT INDEX



USA.gov is the U.S. government's official web portal to all federal, state and local government web resources and services.